Погода в Карауле

Погода в Карауле : погода сейчас, прогноз погоды и архив. Всё, что Вы хотите узнать о погоде в Карауле!

Поиск расширенной информации на нашем сайте:

Другие новости

Новости СМИ2

Главная страница сайта

Новости сайта

02.10.2013

Напоминаем, что на нашем новом сайте вы можете получить высокодетализированные прогнозы погоды по пунктам России, СНГ и мира (включающие важные для авиации метеовеличины, такие как направление и скорость ветра, видимость, явления погоды, количество и форма облачности, нижняя и верхняя граница облачности), а также ознакомиться с разнообразными материалами по авиационной метеорологии и подборкой полезных ссылок на эту тему.

Сайт Метеоцентр.Азия посвящён разработке технологий оптимизации авиаметеорологического обслуживания, включая проектирование и перспективное создание нескольких автоматизированных авиаметеорологических систем:
- система выпуска высокодетальных прогностических карт явлений погоды для нижнего воздушного пространства по России и ближнему зарубежью;
- система верификации прогнозов TAF (выпускаемых синоптиками официальных АМСГ РФ и ближнего зарубежья) и AUTOTAF (выпускаемых сайтом Метеоцентр.Азия) - выявление ошибок, онлайн-сопоставление с фактической погодой METAR, автоматическое внесение коррективов в прогнозы при резком отклонении фактической погоды от прогноза, подсчёт оправдываемости прогнозов по элементам и в целом;
- система обработки, анализа и отображения авиаметеорологической информации для применения провайдерами метеорологической информации.


Погода в Карауле - сегодня

Время (UTC), дата Ветер
(°,м/с) 
Видим.   Явления Облачность Т
(°С)
Тd
(°С)
f(%) Тe
(°С)
Pmin
(гПа)
dP
(гПа)
Po
(мм)
O2
(г/м3)
Тmin Tmax R s Состояние
почвы
15 27.04.17 230 (ЮЗ) 20000 м    8/8 300 м 
[Sc]
-10 -12.8 80 -12  1019.9  -0.4  762  320           
18 27.04.17 тихо ()   20000 м    9/4 300 м средняя, верхняя 
[Sc|Ac trans|Ci fib]
-14 -14.6 95 -14  1019.4  -0.6  762  325           
21 27.04.17 тихо ()   20000 м    10/10 300 м 
[Sc]
-13.8 -14.4 95 -14  1018.9  -0.4  761  324           
00 28.04.17 140 (ЮВ) 2000 м  слаб. ливневой снег  10/10 300 м кучево-дожд. 
[Cb cap]
-12.1 -13.4 90 -16  1018.1  -0.8  761  322  -14.2    0.0  68  неравномерный
сухой снег
100% 
03 28.04.17 160 (Ю) 4000 м  слаб. ливневой снег  10/10 300 м кучево-дожд. 
[Cb cap]
-9.5 -11.6 85 -14  1017.3  -0.8  760  318           
06 28.04.17 180 (Ю) 20000 м  позёмок{ливн. осадки}  9/9 300 м 
[Sc]
-9.1 -11.6 82 -15  1016.3  -1  759  318           
09 28.04.17 170 (Ю) 7-10{10}  20000 м  позёмок  9/9 300 м кучево-дожд. 
[Cb cap]
-8.5 -11.3 80 -14  1014  -2.3  758  316           
12 28.04.17 140 (ЮВ) 7-12{13}  2000 м  слаб. ливневой снег  10/10 300 м кучево-дожд. 
[Cb cap]
-7.9 -9.3 90 -13  1011.6  -2.4  756  315    -7.8  0.2     
15 28.04.17 110 (В) 7-12{12}  4000 м  слаб. ливневой снег  10/10 300 м кучево-дожд. 
[Cb cap]
-7.7 -9.1 90 -13  1009.3  -2.2  754  314           
18 28.04.17 090 (В) 9-12{12}  20000 м  позёмок{ливн. осадки}  9/6 2000 м средняя, верхняя 
[Ac trans|Ci fib]
-9.8 -11.9 85 -17  1007.4  -1.9  753  316           
21 28.04.17 070 (В) 7-11{12}  20000 м  позёмок  9/5 2000 м средняя, верхняя 
[Ac trans|Ci fib]
-10.1 -12.1 85 -16  1005.4  -2  751  315           
00 29.04.17 070 (В) 8-12{13}  20000 м  позёмок  5/1 2000 м средняя, верхняя 
[Ac trans|Ci fib]
-11.3 -13.3 85 -18  1004.5  -0.9  751  317  -11.6    0.8  69  неравномерный
сухой снег
100% 
03 29.04.17 050 (СВ) 3{12}  20000 м    4/4 2000 м средняя 
[Ac lent]
-9.5 -12.1 81 -12  1004.6  0.1  751  315  -12.1         
06 29.04.17 050 (СВ) 7-11{11}  20000 м  позёмок  3/3 2000 м средняя 
[Ac trans]
-10.5 -14.1 75 -17  1005  0.4  751  316           
09 29.04.17 020 (С) 7-10{11}  20000 м  позёмок  3/3 2000 м средняя 
[Ac trans]
-9.8 -12.9 78 -16  1006.5  1.5  752  316           
12 29.04.17 020 (С) 2{10}  20000 м    3/3 2000 м средняя 
[Ac trans]
-9.6 -12.6 79 -11  1008.5  754  316    -9.6       
15 29.04.17 340 (С) 20000 м    9/9 2000 м средняя 
[Ac trans]
-11.2 -13.2 85 -13  1008.7  0.2  754  318           
18 29.04.17 340 (С) 10 км  слаб. снег  10/10 2000 м 
[Ac und]
-12 -14 85 -15  1008.7  754  319           
00 30.04.17 340 (С) 20000 м  {снег}  8/3 300 м средняя 
[Sc|Ac trans]
-16.2 -18.1 85 -20  1008.8  754  324  -16.4    0.7  66  неравномерный
сухой снег
100% 
03 30.04.17 050 (СВ) 20000 м    3/3 2000 м средняя 
[Ac trans]
-15.8 -18.5 80 -20  1010.6  1.8  755  324           
06 30.04.17 340 (С) 20000 м    9/9 2000 м средняя 
[Ac trans]
-13.8 -17.3 75 -18  1012.5  1.9  757  322           
09 30.04.17 340 (С) 20000 м    9/9 2000 м средняя 
[Ac trans]
-11.4 -16.7 65 -16  1013.1  1.1  757  320           
12 30.04.17 320 (СЗ) 20000 м    9/9 2000 м средняя 
[Ac As]
-10.8 -16.1 65 -14  1015  1.4  758  320    -10       
15 30.04.17 360 (С) 20000 м    10/10 2000 м 
[Ac und]
-10.6 -15.9 65 -12  1015.4  0.4  759  319           
18 30.04.17 360 (С) 20000 м    10/10 2000 м 
[Ac und]
-11.2 -15.6 70 -11  1016.3  0.9  759  320           
Время (UTC), дата Ветер
(°,м/с) 
Видим.   Явления Облачность Т
(°С)
Тd
(°С)
f(%) Тe
(°С)
Pmin
(гПа)
dP
(гПа)
Po
(мм)
O2
(г/м3)
Тmin Tmax R s Состояние
почвы

Для получения пояснительной информации подведите курсор к названию столбца.

ПОГОДА в Карауле - архив

Всё, что Вы хотите узнать о погоде в Карауле - удобно и подробно!

Выберите нужную дату (начиная с 1 января 2015* года) и нажмите кнопку "Найти".
Будут отображены архивные сводки погоды по пункту Караул, начиная с указанной даты.


Отображать данные в формате CSV (для использования в таблицах Excel)


Внимание! Наш архив погоды предназначен исключительно для личного некоммерческого использования в познавательных целях. Если Вам необходимы официальные справки о состоянии погоды (для производственных, юридических, коммерческих и т.п. целей), обращайтесь в органы Росгидромета.

*Примечание: данная дата относится к архиву по метеостанциям СССР (Россия, СНГ, Балтия).
Архив по метеостанциям Зарубежной Европы и Азии (кроме Китая) хранится 10 дней, по другим регионам земного шара (Китай, Африка, Америка, Австралия, Океания) - 1 день.

Караул - район местоположения метеостанции


Название, широта, долгота, высота метеостанции:
Караул 70.2°ш. 83.1°д. 29 м над ур. моря [Российская Федерация]

Дополнительная информация

В oтличие oт бoльшинства пoгoдных сайтoв мы публикуем пoдрoбную метеoинфoрмацию в детальнoм прoфессиoнальнoм фoрмате.

Характеристики температуры и влажнoсти вoздуха измеряются на высoте 2 м в тени вдали oт зданий и деревьев.
Скoрoсть ветра измеряется на высoте 10 м (на урoвне рoста челoвека скoрoсть ветра ниже в 1.5-2 раза). Если метеoстанция нахoдится в гoрoде или в лесу, тo скoрoсть ветра занижена на 2-4 м/с пo сравнению с oткрытым местoм. Скoрoсть ветра над акватoриями крупных рек и oзёр, а также на вершинах хoлмoв на 2-5 м/с выше, чем в oбычных услoвиях.
Атмoсфернoе давление в разных тoчках местнoсти мoжет значительнo oтличаться oт давления на метеoстанции, в зависимoсти oт услoвий рельефа (при пoдъёме на 10 м давление пoнижается примернo на 1 мм рт.ст.).